#�ϑ�����,���ϕ���,���ϕ���,�ő啗��,�ő啗����������,�ő�u�ԕ���,�ő�u�ԕ�����������
#(�N����),(m/s)   ,(16����),(m/s)   ,(16����)        ,(m/s)       ,(16����)            
2017/5/13 0:01,2.2,3,2.2,3,3.1,4
2017/5/13 0:02,2.2,3,2.2,3,3.1,4
2017/5/13 0:03,2.1,3,2.2,3,2.2,6
2017/5/13 0:04,2.1,4,2.1,3,2,4
2017/5/13 0:05,2,4,2,3,2.7,6
2017/5/13 0:06,2,4,2,3,3.2,7
2017/5/13 0:07,1.9,4,2,3,2.9,7
2017/5/13 0:08,1.9,4,1.9,3,3.6,4
2017/5/13 0:09,1.9,5,1.9,3,2.9,6
2017/5/13 0:10,1.9,5,1.9,3,2.9,4
2017/5/13 0:11,1.9,4,1.9,3,3.8,3
2017/5/13 0:12,2,4,2,3,4.3,3
2017/5/13 0:13,2.2,4,2.2,4,4.8,3
2017/5/13 0:14,2.3,4,2.3,4,4.9,3
2017/5/13 0:15,2.4,4,2.4,4,4.5,4
2017/5/13 0:16,2.4,3,2.5,3,4.5,3
2017/5/13 0:17,2.7,3,2.7,3,4.7,3
2017/5/13 0:18,2.7,3,2.7,3,4.2,4
2017/5/13 0:19,2.9,3,2.9,3,4.5,4
2017/5/13 0:20,3.1,3,3.1,3,6,3
2017/5/13 0:21,3.1,3,3.1,3,5.5,4
2017/5/13 0:22,3.2,4,3.2,3,4.9,4
2017/5/13 0:23,3.1,4,3.2,3,4.2,5
2017/5/13 0:24,3.1,4,3.2,3,4.3,4
2017/5/13 0:25,3.1,4,3.2,3,3.9,3
2017/5/13 0:26,3.2,4,3.2,3,5.7,5
2017/5/13 0:27,3.1,4,3.2,3,3.2,4
2017/5/13 0:28,3,4,3.1,3,3.7,4
2017/5/13 0:29,2.9,4,3,3,2.2,3
2017/5/13 0:30,2.6,4,2.8,3,2,3
2017/5/13 0:31,2.6,4,2.6,3,4.3,3
2017/5/13 0:32,2.5,4,2.5,4,3.6,4
2017/5/13 0:33,2.4,4,2.5,4,3,4
2017/5/13 0:34,2.2,4,2.4,4,2.5,4
2017/5/13 0:35,2.2,4,2.2,4,3.2,4
2017/5/13 0:36,2.1,4,2.2,4,4.3,5
2017/5/13 0:37,2.1,4,2.1,4,3.7,5
2017/5/13 0:38,2.1,4,2.1,4,3.7,4
2017/5/13 0:39,2.2,4,2.2,4,3.2,5
2017/5/13 0:40,2.4,4,2.4,4,3.8,6
2017/5/13 0:41,2.4,5,2.4,4,3.9,6
2017/5/13 0:42,2.3,5,2.4,4,2.7,5
2017/5/13 0:43,2.3,5,2.3,4,3.3,5
2017/5/13 0:44,2.5,5,2.5,5,4.5,5
2017/5/13 0:45,2.6,5,2.6,5,3.3,6
2017/5/13 0:46,2.5,5,2.6,5,4.1,7
2017/5/13 0:47,2.7,6,2.7,6,6.3,6
2017/5/13 0:48,2.7,6,2.7,6,4.2,6
2017/5/13 0:49,2.6,6,2.7,6,3.1,5
2017/5/13 0:50,2.6,6,2.6,6,4.4,4
2017/5/13 0:51,2.5,5,2.5,6,3.8,5
2017/5/13 0:52,2.6,5,2.6,6,3.9,5
2017/5/13 0:53,2.6,5,2.6,6,3.8,3
2017/5/13 0:54,2.6,5,2.6,6,3.9,3
2017/5/13 0:55,2.8,5,2.8,5,5.4,3
2017/5/13 0:56,2.9,5,2.9,5,5,3
2017/5/13 0:57,2.8,4,2.9,5,4.2,4
2017/5/13 0:58,2.9,4,2.9,5,6.3,4
2017/5/13 0:59,3,4,3,4,4.7,4
2017/5/13 1:00,3.1,4,3.1,4,6,3
2017/5/13 1:01,3.4,4,3.4,4,8.5,4
2017/5/13 1:02,3.5,4,3.5,4,5.8,6
2017/5/13 1:03,3.6,4,3.6,4,5.6,3
2017/5/13 1:04,3.7,3,3.7,4,5.6,3
2017/5/13 1:05,3.6,3,3.7,4,4.5,3
2017/5/13 1:06,3.6,3,3.6,4,4.7,5
2017/5/13 1:07,3.8,3,3.8,3,8.5,3
2017/5/13 1:08,4,3,4.1,3,8.1,3
2017/5/13 1:09,4.1,3,4.1,3,4.9,3
2017/5/13 1:10,3.9,3,4,3,5.2,2
2017/5/13 1:11,3.7,3,3.9,3,5.5,3
2017/5/13 1:12,3.8,3,3.8,3,6.2,3
2017/5/13 1:13,3.7,3,3.8,3,6.2,3
2017/5/13 1:14,3.6,3,3.7,3,4.8,3
2017/5/13 1:15,3.6,3,3.6,3,5.4,3
2017/5/13 1:16,3.6,3,3.6,3,4.7,4
2017/5/13 1:17,3.6,3,3.7,3,5.8,3
2017/5/13 1:18,3.5,3,3.5,3,6.7,4
2017/5/13 1:19,3.7,3,3.7,3,6.7,3
2017/5/13 1:20,3.9,3,3.9,3,6.2,5
2017/5/13 1:21,4,3,4,3,5.2,3
2017/5/13 1:22,3.9,3,4,3,4.3,3
2017/5/13 1:23,3.9,3,3.9,3,5,3
2017/5/13 1:24,4.1,3,4.1,3,6.2,3
2017/5/13 1:25,4.1,3,4.2,3,6.3,4
2017/5/13 1:26,4.1,3,4.1,3,4.9,3
2017/5/13 1:27,3.9,3,4.1,3,5.5,6
2017/5/13 1:28,3.8,3,3.9,3,7.4,5
2017/5/13 1:29,3.7,4,3.8,3,6,4
2017/5/13 1:30,3.5,4,3.7,3,3.8,3
2017/5/13 1:31,3.5,3,3.5,3,4.9,4
2017/5/13 1:32,3.5,3,3.5,3,5.1,3
2017/5/13 1:33,3.4,3,3.5,3,7.4,3
2017/5/13 1:34,3.5,3,3.5,3,6.5,4
2017/5/13 1:35,3.6,3,3.6,3,6.7,3
2017/5/13 1:36,3.6,3,3.6,3,6.1,3
2017/5/13 1:37,3.6,3,3.6,3,4.4,3
2017/5/13 1:38,3.5,3,3.6,3,5.8,3
2017/5/13 1:39,3.4,3,3.5,4,5.1,4
2017/5/13 1:40,3.4,3,3.4,3,4.5,2
2017/5/13 1:41,3.5,3,3.5,3,5.5,3
2017/5/13 1:42,3.6,3,3.6,3,6.5,4
2017/5/13 1:43,3.6,3,3.7,3,7.4,4
2017/5/13 1:44,3.6,3,3.7,3,8.4,3
2017/5/13 1:45,3.3,3,3.6,3,3.9,2
2017/5/13 1:46,3.3,3,3.4,3,3.9,2
2017/5/13 1:47,3.3,3,3.3,3,7.8,4
2017/5/13 1:48,3.5,3,3.5,3,6.7,3
2017/5/13 1:49,3.3,3,3.5,3,3.5,5
2017/5/13 1:50,3.4,3,3.5,3,5.6,3
2017/5/13 1:51,3.4,3,3.4,3,5.2,2
2017/5/13 1:52,3.4,3,3.4,3,5,3
2017/5/13 1:53,3.3,3,3.3,3,4.9,2
2017/5/13 1:54,3.2,3,3.3,3,5.1,3
2017/5/13 1:55,3.2,3,3.2,3,4.8,3
2017/5/13 1:56,3.3,3,3.3,3,5.2,4
2017/5/13 1:57,3.4,3,3.4,3,7.2,4
2017/5/13 1:58,3.4,3,3.4,3,5.8,4
2017/5/13 1:59,3.5,3,3.5,3,6.2,4
2017/5/13 2:00,3.5,3,3.5,3,6.2,3
2017/5/13 2:01,3.5,3,3.6,3,7.6,3
2017/5/13 2:02,3.6,3,3.6,3,5.8,3
2017/5/13 2:03,3.5,3,3.6,3,5.2,3
2017/5/13 2:04,3.5,3,3.5,3,4.7,3
2017/5/13 2:05,3.6,3,3.6,3,5.6,3
2017/5/13 2:06,3.7,3,3.8,3,6.9,4
2017/5/13 2:07,3.7,3,3.8,3,6.7,4
2017/5/13 2:08,3.7,3,3.7,3,6.5,3
2017/5/13 2:09,3.9,3,3.9,3,7.2,3
2017/5/13 2:10,3.9,3,4,3,4.5,3
2017/5/13 2:11,3.9,3,3.9,3,5.8,2
2017/5/13 2:12,3.8,3,3.9,3,7.1,3
2017/5/13 2:13,3.9,3,4,3,5.8,3
2017/5/13 2:14,3.9,3,3.9,3,4.9,2
2017/5/13 2:15,3.7,3,3.9,3,5.5,3
2017/5/13 2:16,3.6,3,3.7,3,4.2,3
2017/5/13 2:17,3.3,3,3.5,3,3.9,16
2017/5/13 2:18,3.2,3,3.3,3,5.5,3
2017/5/13 2:19,3,3,3.2,3,3.9,4
2017/5/13 2:20,2.8,3,2.9,3,3.7,2
2017/5/13 2:21,2.7,3,2.8,3,4.4,2
2017/5/13 2:22,2.5,3,2.6,3,3.9,2
2017/5/13 2:23,2.4,2,2.5,3,4.2,2
2017/5/13 2:24,2.3,2,2.4,3,3.6,2
2017/5/13 2:25,2.3,2,2.4,3,3.5,3
2017/5/13 2:26,2.3,2,2.3,3,4.3,2
2017/5/13 2:27,2.4,2,2.4,3,4.4,1
2017/5/13 2:28,2.1,2,2.4,3,3.6,2
2017/5/13 2:29,2.1,2,2.1,3,3.3,2
2017/5/13 2:30,2.2,2,2.2,3,5.4,1
2017/5/13 2:31,2,2,2.1,3,2.5,2
2017/5/13 2:32,2.1,2,2.1,3,4.4,3
2017/5/13 2:33,2,2,2.1,2,3.2,1
2017/5/13 2:34,2,2,2,2,3.5,3
2017/5/13 2:35,2,2,2,2,3.3,3
2017/5/13 2:36,2.1,2,2.1,2,4.5,2
2017/5/13 2:37,2.1,2,2.1,2,3.7,2
2017/5/13 2:38,2.2,2,2.2,2,4.1,2
2017/5/13 2:39,2.4,2,2.4,2,5.2,4
2017/5/13 2:40,2.4,2,2.4,2,3.9,3
2017/5/13 2:41,2.4,2,2.4,2,2.1,2
2017/5/13 2:42,2.3,2,2.4,2,2.5,1
2017/5/13 2:43,2.4,2,2.4,2,3.8,3
2017/5/13 2:44,2.4,2,2.4,2,5,1
2017/5/13 2:45,2.6,2,2.6,2,4.3,3
2017/5/13 2:46,2.5,2,2.5,2,3.7,2
2017/5/13 2:47,2.4,2,2.5,2,4.1,3
2017/5/13 2:48,2.4,2,2.4,2,2.7,2
2017/5/13 2:49,2.1,2,2.3,2,3,2
2017/5/13 2:50,2.1,2,2.1,2,3.2,3
2017/5/13 2:51,2.3,2,2.3,2,4.5,2
2017/5/13 2:52,2.3,2,2.3,2,3.6,4
2017/5/13 2:53,2.3,2,2.4,2,3.8,2
2017/5/13 2:54,2.2,2,2.3,2,3.7,2
2017/5/13 2:55,2.2,2,2.2,2,4.4,3
2017/5/13 2:56,2.3,2,2.3,2,3.8,3
2017/5/13 2:57,2.4,2,2.4,2,5.1,3
2017/5/13 2:58,2.6,3,2.6,3,5.6,3
2017/5/13 2:59,2.7,3,2.7,3,4.9,2
2017/5/13 3:00,2.8,2,2.8,3,4.8,2
2017/5/13 3:01,3,2,3,2,6.3,1
2017/5/13 3:02,3.2,2,3.2,2,6.3,3
2017/5/13 3:03,3.3,2,3.3,2,6.1,3
2017/5/13 3:04,3.5,2,3.5,2,5.5,3
2017/5/13 3:05,3.7,3,3.7,3,6.4,3
2017/5/13 3:06,3.7,3,3.7,3,4.9,3
2017/5/13 3:07,3.7,3,3.7,3,4.2,3
2017/5/13 3:08,3.6,3,3.7,3,4.5,3
2017/5/13 3:09,3.6,3,3.6,3,3.6,3
2017/5/13 3:10,3.5,3,3.6,3,3.9,3
2017/5/13 3:11,3.4,3,3.6,3,3.9,2
2017/5/13 3:12,3.1,3,3.4,3,5.1,3
2017/5/13 3:13,3.2,3,3.2,3,5.1,3
2017/5/13 3:14,3.1,3,3.2,3,4.5,3
2017/5/13 3:15,2.9,3,3.1,3,4.2,4
2017/5/13 3:16,2.9,3,2.9,3,5.4,5
2017/5/13 3:17,2.9,3,2.9,3,4.9,4
2017/5/13 3:18,3,3,3,3,5.4,4
2017/5/13 3:19,2.9,3,3,3,4.3,3
2017/5/13 3:20,3,3,3,3,4.7,5
2017/5/13 3:21,2.8,3,2.9,3,3.3,3
2017/5/13 3:22,3,3,3,3,5.4,2
2017/5/13 3:23,2.9,3,3,3,5,2
2017/5/13 3:24,2.8,3,2.9,3,6.1,3
2017/5/13 3:25,3.1,3,3.1,3,6.9,4
2017/5/13 3:26,3.2,3,3.2,3,5.5,3
2017/5/13 3:27,3.2,3,3.2,3,7.1,4
2017/5/13 3:28,3.2,3,3.2,3,5.6,3
2017/5/13 3:29,3.5,3,3.5,3,5.7,2
2017/5/13 3:30,3.4,3,3.5,3,5.1,3
2017/5/13 3:31,3.7,3,3.7,3,7.5,3
2017/5/13 3:32,3.6,3,3.7,3,4.9,3
2017/5/13 3:33,3.6,3,3.7,3,6.3,4
2017/5/13 3:34,3.7,3,3.7,3,4.2,5
2017/5/13 3:35,3.5,3,3.6,3,5.6,4
2017/5/13 3:36,3.4,3,3.5,3,4.4,2
2017/5/13 3:37,3.4,3,3.4,3,4.4,4
2017/5/13 3:38,3.4,3,3.4,3,5,3
2017/5/13 3:39,3.2,3,3.4,3,4.4,3
2017/5/13 3:40,3.2,3,3.3,3,3.3,3
2017/5/13 3:41,2.9,3,3.1,3,3.5,3
2017/5/13 3:42,2.9,3,3,3,4.7,2
2017/5/13 3:43,2.9,3,2.9,3,3.9,3
2017/5/13 3:44,2.8,2,2.9,3,3.6,3
2017/5/13 3:45,2.8,2,2.9,3,4.9,3
2017/5/13 3:46,2.9,3,2.9,3,4.5,3
2017/5/13 3:47,2.8,3,2.9,3,3.7,3
2017/5/13 3:48,2.7,3,2.8,3,4.5,4
2017/5/13 3:49,2.7,3,2.7,3,3.5,4
2017/5/13 3:50,2.6,3,2.6,3,2.9,2
2017/5/13 3:51,2.7,3,2.7,3,3.7,3
2017/5/13 3:52,2.6,3,2.7,3,4.3,4
2017/5/13 3:53,2.6,3,2.6,3,3.6,3
2017/5/13 3:54,2.5,3,2.6,2,3.6,3
2017/5/13 3:55,2.4,3,2.5,2,3.9,2
2017/5/13 3:56,2.3,3,2.4,3,3.9,4
2017/5/13 3:57,2.3,3,2.3,3,4.2,3
2017/5/13 3:58,2.3,3,2.4,3,3.9,4
2017/5/13 3:59,2.5,3,2.5,3,5.5,3
2017/5/13 4:00,2.6,3,2.6,3,3.8,3
2017/5/13 4:01,2.7,3,2.7,3,5,3
2017/5/13 4:02,2.7,3,2.7,3,3.5,4
2017/5/13 4:03,2.7,3,2.7,3,3.9,3
2017/5/13 4:04,2.8,3,2.8,3,3.8,4
2017/5/13 4:05,2.8,3,2.8,3,3.2,3
2017/5/13 4:06,2.7,3,2.8,3,2.9,3
2017/5/13 4:07,2.6,3,2.7,3,6.3,1
2017/5/13 4:08,2.6,3,2.7,3,4.9,2
2017/5/13 4:09,2.5,3,2.6,3,4.2,2
2017/5/13 4:10,2.4,3,2.5,3,3.5,4
2017/5/13 4:11,2.4,2,2.4,3,5.1,3
2017/5/13 4:12,2.5,2,2.5,3,4.8,2
2017/5/13 4:13,2.6,2,2.6,3,5,4
2017/5/13 4:14,2.5,2,2.6,3,5.4,3
2017/5/13 4:15,2.5,2,2.5,3,4.7,2
2017/5/13 4:16,2.7,2,2.7,3,5.2,3
2017/5/13 4:17,2.8,2,2.9,2,5.2,3
2017/5/13 4:18,3,3,3,3,5.2,4
2017/5/13 4:19,3,3,3,3,4.4,4
2017/5/13 4:20,3.2,3,3.2,3,5.4,3
2017/5/13 4:21,3.1,3,3.2,3,3.9,4
2017/5/13 4:22,3,3,3.1,3,3.2,4
2017/5/13 4:23,2.9,3,3,3,3.7,4
2017/5/13 4:24,2.9,3,3,3,3,4
2017/5/13 4:25,3,3,3,3,3.6,3
2017/5/13 4:26,3,3,3,3,4.5,3
2017/5/13 4:27,3,3,3,3,4.2,3
2017/5/13 4:28,2.8,3,3,3,3.2,3
2017/5/13 4:29,2.9,3,2.9,3,4.8,4
2017/5/13 4:30,2.8,3,2.9,3,3.8,4
2017/5/13 4:31,2.7,3,2.8,3,3.5,4
2017/5/13 4:32,2.8,3,2.8,3,3.8,4
2017/5/13 4:33,2.8,3,2.8,3,3.8,3
2017/5/13 4:34,2.7,3,2.8,3,3.3,3
2017/5/13 4:35,2.7,3,2.7,3,3.3,2
2017/5/13 4:36,2.5,3,2.7,3,2.4,3
2017/5/13 4:37,2.4,3,2.5,3,3.3,3
2017/5/13 4:38,2.4,3,2.4,3,3.9,3
2017/5/13 4:39,2.3,3,2.4,3,4.2,3
2017/5/13 4:40,2.4,3,2.4,3,4.8,3
2017/5/13 4:41,2.5,3,2.5,3,4.4,3
2017/5/13 4:42,2.5,3,2.5,3,3.9,3
2017/5/13 4:43,2.4,3,2.5,3,4.1,2
2017/5/13 4:44,2.5,3,2.5,3,4.5,2
2017/5/13 4:45,2.6,3,2.6,3,4.8,3
2017/5/13 4:46,2.8,3,2.8,3,3.9,4
2017/5/13 4:47,2.8,3,2.8,3,3.1,4
2017/5/13 4:48,2.7,3,2.8,3,3.6,2
2017/5/13 4:49,2.7,3,2.8,3,3.9,3
2017/5/13 4:50,2.6,3,2.7,3,3.8,2
2017/5/13 4:51,2.5,3,2.5,3,3.8,3
2017/5/13 4:52,2.4,3,2.5,3,3.5,4
2017/5/13 4:53,2.4,3,2.4,3,3.2,3
2017/5/13 4:54,2.3,3,2.4,3,3.5,1
2017/5/13 4:55,2.2,2,2.3,3,3.5,3
2017/5/13 4:56,2.1,2,2.2,3,2.5,3
2017/5/13 4:57,2,2,2.1,3,3.2,3
2017/5/13 4:58,2,2,2.1,3,2.7,3
2017/5/13 4:59,2,2,2,3,3.8,2
2017/5/13 5:00,2.1,2,2.1,3,3.8,2
2017/5/13 5:01,2.1,2,2.1,3,4.1,1
2017/5/13 5:02,2,2,2.1,3,3,2
2017/5/13 5:03,2,2,2,3,3.2,1
2017/5/13 5:04,2.1,2,2.1,3,3.8,3
2017/5/13 5:05,2.2,2,2.2,2,3.7,2
2017/5/13 5:06,2.3,2,2.3,2,4.1,4
2017/5/13 5:07,2.2,2,2.3,2,2.5,1
2017/5/13 5:08,2.2,2,2.2,2,3.2,2
2017/5/13 5:09,2.2,2,2.2,2,2.6,4
2017/5/13 5:10,2,3,2.2,2,1.8,3
2017/5/13 5:11,1.9,3,2,2,1.5,2
2017/5/13 5:12,1.8,3,1.8,2,2,3
2017/5/13 5:13,1.8,3,1.8,2,2.4,3
2017/5/13 5:14,1.7,3,1.8,2,2.1,3
2017/5/13 5:15,1.6,3,1.7,2,2.2,3
2017/5/13 5:16,1.5,3,1.6,2,2.2,3
2017/5/13 5:17,1.5,3,1.5,2,2.5,3
2017/5/13 5:18,1.5,3,1.6,2,2.6,3
2017/5/13 5:19,1.6,3,1.6,2,4.3,2
2017/5/13 5:20,1.6,3,1.6,3,3.1,3
2017/5/13 5:21,1.7,3,1.7,3,2.2,1
2017/5/13 5:22,1.7,3,1.7,3,3.1,3
2017/5/13 5:23,1.8,3,1.8,3,2.7,3
2017/5/13 5:24,1.7,3,1.7,3,2.4,3
2017/5/13 5:25,1.7,3,1.8,3,3.9,3
2017/5/13 5:26,1.9,3,1.9,3,3.5,3
2017/5/13 5:27,1.9,3,1.9,3,2.9,3
2017/5/13 5:28,1.9,3,1.9,3,2.6,3
2017/5/13 5:29,1.9,3,1.9,3,2.7,3
2017/5/13 5:30,1.9,3,1.9,3,2.2,4
2017/5/13 5:31,2,3,2,3,2.6,3
2017/5/13 5:32,1.9,3,2,3,2.5,3
2017/5/13 5:33,2,3,2,3,3.6,3
2017/5/13 5:34,2.2,3,2.2,3,3.9,3
2017/5/13 5:35,2.2,3,2.2,3,4.2,2
2017/5/13 5:36,2.2,3,2.3,3,4.1,2
2017/5/13 5:37,2.3,3,2.3,3,4.4,3
2017/5/13 5:38,2.5,3,2.5,3,5.4,3
2017/5/13 5:39,2.7,3,2.7,3,5.1,3
2017/5/13 5:40,2.9,3,2.9,3,4.5,3
2017/5/13 5:41,3,3,3,3,4.3,3
2017/5/13 5:42,3.1,3,3.1,3,4.3,3
2017/5/13 5:43,3.1,3,3.1,3,4.3,3
2017/5/13 5:44,3,3,3.1,3,3.8,3
2017/5/13 5:45,3,3,3.1,3,3.6,2
2017/5/13 5:46,3,3,3.1,3,3.6,2
2017/5/13 5:47,3,3,3.1,3,3.1,3
2017/5/13 5:48,2.7,3,2.9,3,3.2,2
2017/5/13 5:49,2.6,3,2.7,3,3.5,3
2017/5/13 5:50,2.5,3,2.6,3,3.2,3
2017/5/13 5:51,2.3,3,2.5,3,2,3
2017/5/13 5:52,2.1,3,2.3,3,1.6,4
2017/5/13 5:53,2,3,2.1,3,2.1,4
2017/5/13 5:54,2,3,2,3,3.1,3
2017/5/13 5:55,1.9,3,2,3,3.1,3
2017/5/13 5:56,1.9,3,1.9,3,3.6,3
2017/5/13 5:57,1.8,3,1.9,3,2.5,3
2017/5/13 5:58,1.9,3,1.9,3,3,3
2017/5/13 5:59,1.8,3,1.9,3,2.6,2
2017/5/13 6:00,1.7,3,1.8,3,2.4,3
2017/5/13 6:01,1.8,3,1.8,3,2.4,4
2017/5/13 6:02,1.9,3,1.9,3,2.9,5
2017/5/13 6:03,2,3,2,3,3.2,3
2017/5/13 6:04,2,3,2,3,2.7,4
2017/5/13 6:05,1.9,3,2,3,2.6,3
2017/5/13 6:06,1.9,3,1.9,3,3.2,4
2017/5/13 6:07,1.9,3,1.9,3,3,3
2017/5/13 6:08,1.9,3,1.9,3,2.5,3
2017/5/13 6:09,1.9,3,1.9,3,2.6,3
2017/5/13 6:10,1.9,3,1.9,3,3.1,4
2017/5/13 6:11,1.9,3,1.9,3,2.5,5
2017/5/13 6:12,1.9,4,1.9,3,2.2,3
2017/5/13 6:13,1.8,4,1.9,3,2.9,4
2017/5/13 6:14,1.9,4,1.9,3,3.2,3
2017/5/13 6:15,2,3,2,3,3.1,3
2017/5/13 6:16,2,3,2,3,2.9,3
2017/5/13 6:17,2,4,2,3,2.7,3
2017/5/13 6:18,1.9,4,2,3,2,4
2017/5/13 6:19,1.9,4,2,3,1.6,4
2017/5/13 6:20,1.8,4,1.9,3,1.6,4
2017/5/13 6:21,1.6,4,1.8,3,0.9,5
2017/5/13 6:22,1.6,3,1.6,3,1.1,2
2017/5/13 6:23,1.4,3,1.5,3,1.5,3
2017/5/13 6:24,1.2,4,1.4,3,0.5,7
2017/5/13 6:25,1,4,1.2,3,0.6,6
2017/5/13 6:26,0.8,4,1,3,0.8,6
2017/5/13 6:27,0.6,4,0.8,4,0.5,6
2017/5/13 6:28,0.5,4,0.6,4,0.8,4
2017/5/13 6:29,0.5,5,0.5,4,0.9,4
2017/5/13 6:30,0.5,4,0.5,4,1.5,3
2017/5/13 6:31,0.6,4,0.6,4,1.5,3
2017/5/13 6:32,0.6,4,0.6,3,1.4,3
2017/5/13 6:33,0.6,4,0.6,3,1.4,2
2017/5/13 6:34,0.7,4,0.7,4,1.4,3
2017/5/13 6:35,0.7,4,0.7,4,1.5,3
2017/5/13 6:36,0.7,3,0.7,4,1.1,4
2017/5/13 6:37,0.7,3,0.7,4,0.4,2
2017/5/13 6:38,0.7,3,0.7,4,0.9,4
2017/5/13 6:39,0.7,3,0.7,4,0.8,4
2017/5/13 6:40,0.6,2,0.7,4,0.3,14
2017/5/13 6:41,0.5,2,0.6,4,1.4,14
2017/5/13 6:42,0.6,1,0.6,4,2.1,13
2017/5/13 6:43,0.7,1,0.7,4,2.2,13
2017/5/13 6:44,0.8,16,0.8,16,2.4,13
2017/5/13 6:45,1,15,1,15,3,13
2017/5/13 6:46,1.2,14,1.2,14,2.9,13
2017/5/13 6:47,1.4,14,1.4,14,2.7,13
2017/5/13 6:48,1.5,13,1.5,13,2,12
2017/5/13 6:49,1.5,13,1.5,13,1.1,13
2017/5/13 6:50,1.5,13,1.5,13,0.5,7
2017/5/13 6:51,1.5,12,1.5,13,0.4,11
2017/5/13 6:52,1.4,12,1.5,13,1.3,11
2017/5/13 6:53,1.3,12,1.4,13,2.4,12
2017/5/13 6:54,1.2,12,1.3,13,2,12
2017/5/13 6:55,1.2,12,1.2,13,3.2,13
2017/5/13 6:56,1.1,12,1.2,13,2.1,12
2017/5/13 6:57,1,12,1.1,13,2.2,12
2017/5/13 6:58,1.1,12,1.1,13,2.4,12
2017/5/13 6:59,1.2,12,1.2,13,2.4,12
2017/5/13 7:00,1.2,12,1.2,13,1.3,12
2017/5/13 7:01,1.2,12,1.2,12,1.1,13
2017/5/13 7:02,1.1,12,1.2,12,0.9,12
2017/5/13 7:03,1,12,1.1,12,0.1,11
2017/5/13 7:04,0.9,12,1,12,0.1,10
2017/5/13 7:05,0.7,12,0.9,12,0.3,13
2017/5/13 7:06,0.6,12,0.7,12,0.5,10
2017/5/13 7:07,0.4,12,0.6,12,0.5,11
2017/5/13 7:08,0.4,12,0.4,12,1.5,12
2017/5/13 7:09,0.3,12,0.4,12,1.3,13
2017/5/13 7:10,0.4,12,0.4,12,1.5,13
2017/5/13 7:11,0.5,12,0.5,12,1.9,13
2017/5/13 7:12,0.5,12,0.5,12,1.5,13
2017/5/13 7:13,0.6,12,0.6,12,1,14
2017/5/13 7:14,0.6,13,0.6,12,0.8,13
2017/5/13 7:15,0.6,13,0.6,12,0.6,14
2017/5/13 7:16,0.6,13,0.7,13,0.5,11
2017/5/13 7:17,0.6,13,0.6,13,0.4,11
2017/5/13 7:18,0.5,13,0.6,13,0,11
2017/5/13 7:19,0.4,12,0.5,13,0.1,10
2017/5/13 7:20,0.4,12,0.4,13,0.1,12
2017/5/13 7:21,0.2,12,0.3,13,0.1,11
2017/5/13 7:22,0.1,12,0.2,13,0.1,13
2017/5/13 7:23,0.1,12,0.1,13,0,13
2017/5/13 7:24,0,12,0,13,0.1,11
2017/5/13 7:25,0,12,0,13,0.1,11
2017/5/13 7:26,0,11,0,13,0.1,11
2017/5/13 7:27,0,11,0,13,0.1,10
2017/5/13 7:28,0,11,0,13,0,10
2017/5/13 7:29,0,11,0,12,0.1,4
2017/5/13 7:30,0,11,0,12,0.1,6
2017/5/13 7:31,0,10,0,12,0.1,6
2017/5/13 7:32,0,10,0,12,0,3
2017/5/13 7:33,0,8,0,12,0,3
2017/5/13 7:34,0,6,0,12,0,4
2017/5/13 7:35,0,5,0,12,0,4
2017/5/13 7:36,0,5,0,11,0.1,4
2017/5/13 7:37,0,4,0,11,0.1,4
2017/5/13 7:38,0,4,0,11,0.1,3
2017/5/13 7:39,0,4,0,11,0.6,4
2017/5/13 7:40,0.1,4,0.1,4,0.8,4
2017/5/13 7:41,0.1,4,0.1,4,0.4,3
2017/5/13 7:42,0.1,4,0.1,4,0.8,3
2017/5/13 7:43,0.1,4,0.1,4,0.6,3
2017/5/13 7:44,0.1,4,0.1,4,0.4,6
2017/5/13 7:45,0.2,4,0.2,4,0.9,5
2017/5/13 7:46,0.2,4,0.2,4,0.5,4
2017/5/13 7:47,0.2,4,0.2,4,0.8,4
2017/5/13 7:48,0.3,4,0.3,4,1,5
2017/5/13 7:49,0.3,4,0.3,4,0.6,5
2017/5/13 7:50,0.3,4,0.3,4,0.9,5
2017/5/13 7:51,0.4,4,0.4,4,0.8,3
2017/5/13 7:52,0.3,4,0.3,4,0.5,5
2017/5/13 7:53,0.3,4,0.3,4,0.1,4
2017/5/13 7:54,0.3,4,0.3,4,0.1,1
2017/5/13 7:55,0.2,4,0.3,4,0.1,1
2017/5/13 7:56,0.2,3,0.2,4,0,2
2017/5/13 7:57,0.2,3,0.2,4,0,1
2017/5/13 7:58,0.1,3,0.2,4,0,1
2017/5/13 7:59,0.1,3,0.1,4,0,4
2017/5/13 8:00,0,3,0.1,4,0,3
2017/5/13 8:01,0,2,0,4,0.1,1
2017/5/13 8:02,0,2,0,4,0.1,2
2017/5/13 8:03,0,2,0,4,0.6,3
2017/5/13 8:04,0,2,0,4,0.9,3
2017/5/13 8:05,0,2,0,4,0.1,4
2017/5/13 8:06,0,2,0,3,0,3
2017/5/13 8:07,0,2,0,3,0,16
2017/5/13 8:08,0,2,0,3,0.1,15
2017/5/13 8:09,0,1,0,3,0,15
2017/5/13 8:10,0.1,1,0.1,1,0.8,11
2017/5/13 8:11,0.1,16,0.1,1,0.8,10
2017/5/13 8:12,0.1,16,0.1,1,0.5,11
2017/5/13 8:13,0.2,16,0.2,16,1.4,5
2017/5/13 8:14,0.2,15,0.2,16,1.4,6
2017/5/13 8:15,0.2,14,0.2,16,1,7
2017/5/13 8:16,0.3,12,0.3,13,1.3,7
2017/5/13 8:17,0.3,10,0.3,13,0.3,6
2017/5/13 8:18,0.3,9,0.3,13,0.9,8
2017/5/13 8:19,0.3,8,0.3,13,1,8
2017/5/13 8:20,0.3,8,0.3,13,1.1,9
2017/5/13 8:21,0.4,8,0.4,8,1,9
2017/5/13 8:22,0.4,8,0.4,8,0.4,10
2017/5/13 8:23,0.3,8,0.4,8,0.4,8
2017/5/13 8:24,0.3,8,0.3,8,0.6,5
2017/5/13 8:25,0.3,8,0.3,8,1,4
2017/5/13 8:26,0.3,8,0.3,8,1,7
2017/5/13 8:27,0.3,7,0.3,8,1.1,4
2017/5/13 8:28,0.4,7,0.4,8,1.1,4
2017/5/13 8:29,0.3,6,0.4,8,0.1,4
2017/5/13 8:30,0.3,6,0.3,8,0.1,4
2017/5/13 8:31,0.2,5,0.3,8,0.1,4
2017/5/13 8:32,0.2,5,0.2,8,0.1,8
2017/5/13 8:33,0.2,5,0.2,7,0.3,8
2017/5/13 8:34,0.2,5,0.2,7,0.1,10
2017/5/13 8:35,0.2,4,0.2,7,0.1,15
2017/5/13 8:36,0.1,5,0.2,7,0,13
2017/5/13 8:37,0.1,6,0.1,7,0,9
2017/5/13 8:38,0,7,0.1,7,0.9,9
2017/5/13 8:39,0.1,8,0.1,6,1.5,9
2017/5/13 8:40,0.2,9,0.2,6,1.6,9
2017/5/13 8:41,0.3,9,0.3,9,1,9
2017/5/13 8:42,0.3,9,0.3,9,0.3,9
2017/5/13 8:43,0.3,10,0.3,9,0.3,6
2017/5/13 8:44,0.3,10,0.3,9,1,12
2017/5/13 8:45,0.3,10,0.3,9,0.6,9
2017/5/13 8:46,0.4,10,0.4,10,0.9,10
2017/5/13 8:47,0.5,9,0.5,9,1.4,7
2017/5/13 8:48,0.6,9,0.6,9,1.5,8
2017/5/13 8:49,0.6,9,0.6,9,1.4,8
2017/5/13 8:50,0.5,9,0.6,9,1.1,10
2017/5/13 8:51,0.6,9,0.6,9,1.4,9
2017/5/13 8:52,0.7,9,0.7,9,1,8
2017/5/13 8:53,0.7,9,0.7,9,0.5,8
2017/5/13 8:54,0.6,9,0.6,9,0.4,8
2017/5/13 8:55,0.6,9,0.6,9,0.1,14
2017/5/13 8:56,0.6,9,0.6,9,0.6,11
2017/5/13 8:57,0.5,9,0.6,9,0,8
2017/5/13 8:58,0.4,10,0.5,9,0.1,12
2017/5/13 8:59,0.3,10,0.4,9,0,11
2017/5/13 9:00,0.2,10,0.3,9,0.1,11
2017/5/13 9:01,0.1,10,0.2,9,0.1,11
2017/5/13 9:02,0,10,0.1,9,0.1,9
2017/5/13 9:03,0,10,0,9,0,9
2017/5/13 9:04,0,10,0,9,0,9
2017/5/13 9:05,0,10,0,9,0.1,9
2017/5/13 9:06,0,10,0,9,0,11
2017/5/13 9:07,0,10,0,9,0,5
2017/5/13 9:08,0,9,0,10,0,2
2017/5/13 9:09,0,9,0,10,1.1,8
2017/5/13 9:10,0.2,9,0.2,10,1.9,11
2017/5/13 9:11,0.3,9,0.3,9,1.9,10
2017/5/13 9:12,0.4,10,0.4,9,1.5,10
2017/5/13 9:13,0.6,10,0.6,10,1.9,11
2017/5/13 9:14,0.7,10,0.7,10,2.2,9
2017/5/13 9:15,0.9,10,0.9,10,2.2,10
2017/5/13 9:16,1,10,1,10,2.1,10
2017/5/13 9:17,1.2,10,1.2,10,2.1,10
2017/5/13 9:18,1.2,10,1.2,10,1.4,8
2017/5/13 9:19,1.2,10,1.2,10,2.1,10
2017/5/13 9:20,1.2,10,1.2,10,2,9
2017/5/13 9:21,1.2,10,1.2,10,2.2,9
2017/5/13 9:22,1.1,10,1.2,10,1.6,10
2017/5/13 9:23,1.1,10,1.1,10,1.4,9
2017/5/13 9:24,1,10,1.1,10,1.3,9
2017/5/13 9:25,0.9,10,1,10,1.5,10
2017/5/13 9:26,0.8,10,0.9,10,1.6,10
2017/5/13 9:27,0.7,10,0.8,10,1.1,9
2017/5/13 9:28,0.8,10,0.8,10,1.8,10
2017/5/13 9:29,0.9,10,0.9,10,2.5,11
2017/5/13 9:30,1,10,1,10,3.1,10
2017/5/13 9:31,1.1,10,1.1,10,2.7,10
2017/5/13 9:32,1.2,10,1.2,10,2.2,10
2017/5/13 9:33,1.2,10,1.2,10,2.4,11
2017/5/13 9:34,1.3,10,1.3,10,1.6,11
2017/5/13 9:35,1.4,10,1.4,10,1.5,9
2017/5/13 9:36,1.4,10,1.4,10,1.6,9
2017/5/13 9:37,1.4,10,1.4,10,1.5,9
2017/5/13 9:38,1.3,10,1.4,10,1.1,7
2017/5/13 9:39,1.2,10,1.3,10,1.5,12
2017/5/13 9:40,1,10,1.2,10,2.2,9
2017/5/13 9:41,1,10,1,10,3,9
2017/5/13 9:42,1.1,10,1.1,10,2.7,9
2017/5/13 9:43,1.1,9,1.1,10,3,9
2017/5/13 9:44,1.2,9,1.2,10,2.5,10
2017/5/13 9:45,1.2,9,1.2,10,2.1,9
2017/5/13 9:46,1.2,9,1.2,10,2,10
2017/5/13 9:47,1.3,9,1.3,10,3,9
2017/5/13 9:48,1.4,9,1.4,9,2.2,10
2017/5/13 9:49,1.5,9,1.5,9,2.7,9
2017/5/13 9:50,1.5,9,1.5,9,2.2,9
2017/5/13 9:51,1.4,9,1.5,9,1.4,10
2017/5/13 9:52,1.4,9,1.5,9,2.4,8
2017/5/13 9:53,1.4,9,1.4,9,2.5,9
2017/5/13 9:54,1.3,9,1.4,9,1.8,9
2017/5/13 9:55,1.3,9,1.3,9,1.8,10
2017/5/13 9:56,1.4,9,1.4,9,2.2,8
2017/5/13 9:57,1.3,9,1.3,9,2.1,9
2017/5/13 9:58,1.2,9,1.3,9,1,13
2017/5/13 9:59,1.1,9,1.2,9,2.1,9
2017/5/13 10:00,1.1,9,1.1,9,2,10
2017/5/13 10:01,1.1,9,1.1,9,1.8,10
2017/5/13 10:02,1.1,10,1.1,9,1.6,12
2017/5/13 10:03,1,10,1.1,9,1.5,12
2017/5/13 10:04,0.9,10,1,9,1.1,8
2017/5/13 10:05,0.9,10,0.9,9,0.5,9
2017/5/13 10:06,0.8,10,0.9,9,1.8,10
2017/5/13 10:07,0.8,10,0.8,9,1.6,9
2017/5/13 10:08,0.9,10,0.9,9,1.4,9
2017/5/13 10:09,0.8,10,0.9,9,1.1,9
2017/5/13 10:10,0.8,10,0.8,9,1.4,7
2017/5/13 10:11,0.8,9,0.8,9,1.1,9
2017/5/13 10:12,0.6,9,0.7,10,0.1,10
2017/5/13 10:13,0.6,9,0.6,10,0.8,11
2017/5/13 10:14,0.7,9,0.7,10,1.8,8
2017/5/13 10:15,0.8,9,0.8,10,1.9,8
2017/5/13 10:16,0.8,9,0.8,10,1.8,8
2017/5/13 10:17,0.8,9,0.8,10,1.5,8
2017/5/13 10:18,0.8,9,0.8,10,0.8,11
2017/5/13 10:19,0.7,9,0.8,10,1,9
2017/5/13 10:20,0.7,9,0.7,10,1.1,7
2017/5/13 10:21,0.7,9,0.7,9,1.4,8
2017/5/13 10:22,0.8,9,0.8,9,1.9,9
2017/5/13 10:23,0.9,8,0.9,9,1.8,8
2017/5/13 10:24,1,8,1,8,1.8,8
2017/5/13 10:25,0.9,8,1,8,1.8,7
2017/5/13 10:26,1,8,1,8,1.8,8
2017/5/13 10:27,0.9,8,0.9,8,1.4,9
2017/5/13 10:28,1,8,1,8,1.5,10
2017/5/13 10:29,1,9,1,8,1.8,10
2017/5/13 10:30,1,9,1,8,1.3,10
2017/5/13 10:31,1,9,1,8,1.3,9
2017/5/13 10:32,1,9,1,8,1.8,9
2017/5/13 10:33,0.9,9,1,8,1.1,9
2017/5/13 10:34,0.8,9,0.9,8,0.1,9
2017/5/13 10:35,0.7,9,0.8,8,0.3,5
2017/5/13 10:36,0.6,9,0.7,8,0.1,5
2017/5/13 10:37,0.5,8,0.6,8,1.1,8
2017/5/13 10:38,0.5,8,0.5,8,0.5,8
2017/5/13 10:39,0.4,8,0.5,8,0.8,8
2017/5/13 10:40,0.4,8,0.4,9,0.8,12
2017/5/13 10:41,0.4,8,0.4,9,0.8,12
2017/5/13 10:42,0.2,9,0.4,9,0.4,10
2017/5/13 10:43,0.2,9,0.2,9,1.1,8
2017/5/13 10:44,0.3,9,0.3,9,1.6,10
2017/5/13 10:45,0.4,9,0.4,9,1.3,10
2017/5/13 10:46,0.5,9,0.5,9,1.1,8
2017/5/13 10:47,0.5,9,0.5,8,0.8,9
2017/5/13 10:48,0.5,10,0.5,8,1,10
2017/5/13 10:49,0.4,10,0.5,9,0.4,14
2017/5/13 10:50,0.4,10,0.4,9,0.1,13
2017/5/13 10:51,0.4,10,0.4,9,1,9
2017/5/13 10:52,0.5,9,0.5,9,1,9
2017/5/13 10:53,0.5,9,0.5,9,1,8
2017/5/13 10:54,0.4,9,0.5,9,0.8,8
2017/5/13 10:55,0.4,9,0.4,9,1.1,7
2017/5/13 10:56,0.4,9,0.4,9,0.9,7
2017/5/13 10:57,0.3,9,0.4,10,0.5,9
2017/5/13 10:58,0.3,8,0.3,10,0.4,9
2017/5/13 10:59,0.3,9,0.3,10,0.6,13
2017/5/13 11:00,0.4,9,0.4,10,1,11
2017/5/13 11:01,0.4,9,0.4,10,1.3,13
2017/5/13 11:02,0.5,10,0.5,9,1.8,13
2017/5/13 11:03,0.5,10,0.5,9,0.9,13
2017/5/13 11:04,0.5,11,0.5,10,0.8,13
2017/5/13 11:05,0.5,12,0.5,10,0.8,13
2017/5/13 11:06,0.5,12,0.5,10,0.8,14
2017/5/13 11:07,0.5,12,0.5,10,1,8
2017/5/13 11:08,0.6,12,0.6,12,1.5,7
2017/5/13 11:09,0.6,12,0.6,12,1.4,10
2017/5/13 11:10,0.6,12,0.6,12,0.9,10
2017/5/13 11:11,0.7,12,0.7,12,1.5,10
2017/5/13 11:12,0.6,11,0.7,12,1.3,10
2017/5/13 11:13,0.6,11,0.6,12,1,9
2017/5/13 11:14,0.5,11,0.6,12,0.3,12
2017/5/13 11:15,0.5,11,0.5,12,1,11
2017/5/13 11:16,0.5,10,0.5,12,1.4,9
2017/5/13 11:17,0.5,10,0.5,12,1.6,9
2017/5/13 11:18,0.5,10,0.5,12,0.8,9
2017/5/13 11:19,0.5,10,0.5,12,1.5,11
2017/5/13 11:20,0.6,10,0.6,12,2.1,9
2017/5/13 11:21,0.5,10,0.6,12,1.4,11
2017/5/13 11:22,0.6,10,0.6,11,1,10
2017/5/13 11:23,0.6,10,0.6,11,0.9,8
2017/5/13 11:24,0.6,10,0.6,10,0.6,10
2017/5/13 11:25,0.6,10,0.6,10,0.8,9
2017/5/13 11:26,0.6,10,0.6,10,0.6,12
2017/5/13 11:27,0.5,10,0.6,10,1.1,13
2017/5/13 11:28,0.5,11,0.5,10,0.1,10
2017/5/13 11:29,0.5,11,0.5,10,1.3,9
2017/5/13 11:30,0.5,10,0.5,10,1.8,9
2017/5/13 11:31,0.5,10,0.5,10,1.3,10
2017/5/13 11:32,0.5,10,0.5,10,1.3,10
2017/5/13 11:33,0.5,10,0.5,10,1.6,10
2017/5/13 11:34,0.6,10,0.6,10,1.4,9
2017/5/13 11:35,0.6,10,0.6,10,1.1,12
2017/5/13 11:36,0.7,10,0.7,10,1.3,12
2017/5/13 11:37,0.7,10,0.7,10,1,12
2017/5/13 11:38,0.7,10,0.7,10,0.6,12
2017/5/13 11:39,0.7,11,0.7,10,0.6,12
2017/5/13 11:40,0.7,11,0.7,10,1.1,13